Wind_Speed
11 12 14 10 4 6 12 17 16 15 21 21 14 10 9 8 8 6 8 10 8 6 6 5 4 7 10 10 10 9 7 9 9 12 18 16 13 14 16 17 17 17 16 15 14 14 15 19 23 25 27 30 31 32 32 34 35 35 35 37 37 37 38 39 41 42 42 42 43 42 41 41 42 42 41 41 40 39 39 40 41 40 39 39 39 40 41
11 10 11 12 7 1 2 11 15 11 16 23 18 10 9 9 7 7 10 10 5 4 3 4 5 9 10 8 10 10 9 11 12 13 15 15 13 13 14 15 15 15 15 15 14 14 14 16 21 24 25 28 31 31 31 33 35 34 35 36 37 38 38 39 40 41 42 41 41 41 41 41 42 42 41 41 41 40 40 40 40 40 40 39 39 40 40
6 7 11 15 8 1 2 3 7 4 7 19 20 13 10 8 7 7 9 10 3 2 9 11 9 9 11 10 10 11 10 10 11 12 12 13 13 13 12 12 12 12 13 13 14 14 14 16 20 22 23 27 30 30 30 32 34 35 35 36 38 39 38 39 39 40 40 40 40 41 42 41 42 42 42 41 41 40 40 39 40 40 40 40 39 39 40
3 3 8 14 9 5 6 4 2 3 3 9 16 13 9 6 8 8 9 10 4 3 10 11 8 10 12 13 12 12 10 10 12 13 11 11 11 11 10 10 10 10 11 12 13 13 13 16 20 22 23 25 28 29 30 31 33 35 34 34 36 39 38 38 39 40 39 40 39 40 41 41 41 42 42 41 40 40 40 39 39 39 40 41 41 40 40
4 4 7 9 8 6 7 3 0 2 4 4 10 14 12 6 7 7 6 6 7 6 10 10 10 12 11 11 10 10 10 10 12 12 11 9 9 9 9 9 9 9 9 9 10 12 13 16 20 22 24 24 26 29 31 31 31 33 34 33 33 36 38 38 40 41 40 40 40 39 40 41 41 41 41 40 40 40 40 40 39 39 41 42 42 41 41
5 8 8 5 4 4 3 0 1 2 6 6 3 5 10 7 4 6 8 6 4 9 11 9 11 12 10 9 9 9 9 9 10 12 12 9 7 8 9 9 7 7 7 6 6 9 13 15 17 19 21 21 24 28 30 31 31 31 33 32 31 33 37 38 39 41 41 40 40 40 40 40 39 39 39 39 40 40 39 39 39 39 41 42 42 43 42
5 7 5 2 1 5 2 2 4 7 8 5 9 14 10 8 7 3 14 13 6 9 12 10 10 11 11 11 13 14 13 12 12 13 13 13 12 11 11 11 9 8 8 8 7 8 8 7 9 14 18 19 20 23 25 27 29 30 32 32 30 31 34 37 38 39 41 41 40 40 39 39 38 38 37 38 39 39 37 38 39 40 40 41 42 43 43
4 3 1 2 3 6 1 6 10 14 11 6 6 15 17 18 18 11 6 13 11 12 13 11 10 11 13 15 15 16 17 16 14 13 12 13 15 13 11 11 10 8 9 10 9 10 11 10 6 3 9 15 19 21 22 23 24 27 29 31 31 30 32 36 37 38 40 40 39 39 38 37 38 37 37 37 37 37 36 36 38 39 39 39 40 41 42
3 3 3 3 3 5 2 7 11 12 11 8 3 9 11 18 20 18 10 5 12 14 14 12 11 13 15 14 12 14 16 15 14 13 12 12 13 12 11 11 11 12 14 14 13 12 13 12 11 10 6 4 10 14 19 23 23 23 25 27 29 29 30 34 36 37 38 39 38 38 37 37 37 37 37 37 36 36 35 34 34 35 37 37 37 38 39
3 4 3 2 2 2 4 11 17 16 15 12 3 12 10 17 19 20 15 8 9 11 12 12 11 13 14 10 8 10 13 12 13 13 12 12 11 10 11 10 12 15 15 13 14 15 15 14 13 12 13 9 4 4 9 17 24 25 23 24 27 27 28 32 35 36 36 38 38 37 37 37 36 35 35 35 35 34 34 34 33 33 34 34 35 36 36
3 3 2 2 1 1 8 17 20 19 20 14 3 11 8 13 17 18 17 16 14 11 11 12 11 11 10 6 5 8 10 11 12 11 11 11 10 10 12 12 11 15 16 15 16 17 16 16 15 13 14 12 8 6 6 7 15 22 25 26 26 27 27 29 33 35 36 36 37 37 36 36 35 34 34 33 33 33 33 33 33 32 31 31 32 34 35
4 3 2 2 1 3 12 18 18 20 19 11 4 8 4 10 14 15 16 17 17 14 13 14 12 9 7 5 5 7 9 11 12 12 11 11 10 11 13 15 16 17 18 17 16 16 15 15 14 14 15 15 12 9 8 7 6 13 21 26 29 28 27 27 30 34 35 35 36 36 35 34 33 33 32 31 31 32 32 31 31 31 31 31 31 32 33
4 4 3 2 1 4 13 17 18 20 15 4 7 6 2 8 10 12 15 16 15 14 12 11 10 8 7 7 8 10 11 12 12 12 12 13 14 15 15 16 17 17 17 16 14 13 14 15 14 15 16 16 16 13 10 9 8 8 11 20 28 29 28 28 29 32 34 34 35 34 34 33 31 31 31 30 30 30 30 29 29 30 31 31 30 30 31
3 2 3 3 0 6 15 16 17 17 9 4 4 1 4 7 8 11 14 14 14 13 12 10 9 8 9 11 12 13 13 13 12 13 12 12 14 16 16 16 16 14 12 12 12 12 14 15 14 15 16 17 18 15 10 8 9 8 8 14 26 30 29 28 29 31 32 33 33 32 32 31 30 29 29 29 29 29 28 28 28 28 29 29 29 28 28
2 1 3 3 1 7 17 15 13 13 8 2 1 2 4 8 11 11 11 12 13 13 11 11 10 9 10 11 12 12 12 12 12 12 12 12 11 13 14 14 16 16 10 8 10 12 12 12 13 13 14 17 17 11 6 9 8 6 5 7 22 29 29 28 28 30 31 31 30 30 29 30 29 27 27 27 28 28 28 27 27 27 27 28 28 28 27
3 2 2 2 1 6 10 9 7 8 6 2 1 2 5 8 10 9 9 11 13 12 11 11 10 10 11 10 10 11 10 10 11 10 10 11 10 11 13 13 16 17 12 7 9 11 11 12 12 11 12 14 12 7 7 11 10 7 6 2 13 24 27 27 27 28 29 29 29 28 28 28 28 26 25 26 27 27 28 27 26 25 25 26 26 26 26
1 1 2 2 4 5 5 5 4 5 8 7 5 6 5 6 7 7 7 9 12 12 11 10 10 11 12 11 11 10 9 9 10 10 9 10 11 12 13 12 13 15 14 9 8 8 10 12 13 12 10 10 10 9 8 10 9 8 9 5 7 18 22 23 24 25 27 27 27 28 27 27 27 26 25 25 24 25 26 26 25 23 22 23 24 23 23
2 2 5 2 3 6 6 5 3 4 5 7 6 6 6 5 6 6 7 8 10 11 11 10 10 10 12 13 13 12 10 9 9 9 9 10 12 14 14 11 11 13 14 11 8 8 9 11 13 14 12 10 10 10 8 9 8 7 9 7 5 13 17 19 20 22 25 25 25 26 27 27 27 26 26 25 23 23 23 24 24 23 21 21 22 21 21
3 2 3 5 7 8 6 5 4 3 3 4 5 5 4 4 5 6 8 8 8 9 10 10 10 10 11 12 12 11 10 9 8 8 8 8 10 13 13 10 9 11 11 10 9 9 8 9 11 13 12 10 10 9 7 8 8 5 6 7 6 10 13 15 16 19 21 23 23 24 25 26 25 25 25 25 23 22 22 22 21 21 20 19 19 18 19
4 4 6 9 9 7 5 3 3 4 4 5 5 5 4 4 5 7 9 8 7 8 9 9 10 10 10 10 10 9 9 8 7 7 7 7 9 14 16 11 6 6 9 8 7 7 7 9 11 13 11 8 8 7 7 7 7 4 3 4 5 8 11 12 13 14 15 19 23 23 23 24 23 22 22 22 21 20 20 20 20 20 20 19 18 17 15
5 4 5 8 7 6 7 7 6 7 8 6 6 6 6 5 6 7 7 8 7 7 7 8 8 8 8 8 8 8 8 8 8 7 7 8 10 13 18 14 5 2 6 6 5 7 9 10 14 15 12 8 7 7 7 7 7 4 2 0 3 5 8 10 11 11 10 14 20 22 21 21 20 17 17 19 20 17 15 16 17 18 18 17 15 14 11
5 6 8 10 8 7 9 9 9 10 10 8 7 6 5 6 5 5 5 6 7 6 6 6 6 6 6 7 8 8 7 7 9 8 8 10 11 13 18 16 6 1 3 4 4 6 9 13 16 16 12 8 6 8 10 10 8 4 2 1 2 4 5 6 10 11 9 11 17 20 21 20 16 13 11 12 14 13 10 9 10 11 12 12 11 11 11
6 9 11 11 8 7 9 11 12 10 8 8 9 7 5 6 6 4 4 5 6 5 5 5 5 6 6 6 7 8 7 7 9 11 11 11 11 12 15 16 8 2 2 3 4 6 9 14 17 14 11 10 12 13 13 12 11 8 4 2 7 9 9 8 10 11 9 10 13 15 18 19 18 20 19 17 15 15 13 11 11 11 12 12 11 9 9
10 11 12 12 11 10 10 12 14 12 8 7 8 7 5 5 6 5 4 4 5 5 5 5 6 7 7 7 7 7 7 7 9 12 14 15 15 14 13 13 10 6 3 3 6 9 11 15 19 19 20 20 19 17 15 13 13 11 9 9 12 15 14 14 16 15 14 14 17 16 15 17 22 25 26 26 25 23 21 19 18 17 17 15 13 11 10
11 12 13 13 14 15 14 11 11 11 10 8 8 7 5 4 4 5 5 4 3 4 5 5 7 8 8 7 7 7 7 8 9 10 13 15 16 15 13 9 6 7 6 7 9 10 11 14 17 20 22 23 21 18 16 15 15 15 15 15 15 16 16 16 18 19 19 18 19 20 20 20 22 23 23 24 26 26 26 25 23 23 21 19 17 15 15
12 13 14 16 17 17 14 10 10 11 10 9 9 8 6 6 6 6 5 3 2 2 4 4 6 9 9 8 8 8 8 8 10 12 11 11 13 14 11 5 1 4 6 7 8 8 10 12 15 17 19 21 21 19 16 15 15 16 17 19 19 18 18 19 19 19 20 20 19 20 22 22 21 20 21 22 25 25 23 22 22 22 22 21 18 17 18
14 13 12 15 17 16 12 9 10 11 11 10 11 10 9 9 8 7 6 5 4 3 4 5 7 9 10 11 11 11 9 7 9 11 10 10 13 16 9 1 5 3 5 6 6 5 7 10 12 14 14 16 19 18 16 15 16 16 16 18 20 19 17 17 18 19 20 20 19 20 21 21 21 20 19 21 22 22 20 19 19 20 20 20 18 17 18
15 13 10 12 16 17 14 11 11 13 13 12 12 12 11 10 9 8 7 6 4 3 3 5 6 6 8 11 12 9 6 5 7 8 8 10 15 14 4 5 6 4 6 7 8 9 10 11 13 12 10 10 14 15 14 13 16 19 19 19 20 20 17 15 16 18 19 19 19 20 21 21 20 19 19 21 22 22 23 22 21 20 18 18 18 17 17
14 13 12 14 17 17 15 13 13 15 15 14 12 12 12 10 8 8 7 5 4 3 3 3 4 3 6 11 12 7 4 5 7 8 8 10 12 8 3 9 8 7 9 11 13 14 14 14 14 11 8 9 11 13 13 13 15 19 21 20 19 18 14 13 15 18 19 19 20 21 21 20 19 19 19 20 21 22 23 23 22 20 18 17 17 18 18
14 13 13 15 16 16 15 14 15 15 15 14 13 13 13 11 10 9 7 6 5 3 2 3 4 2 3 9 11 5 3 7 9 9 7 6 7 4 3 8 6 6 8 11 12 13 15 16 16 13 11 12 13 13 13 15 17 20 21 21 20 16 12 12 14 17 18 18 18 18 19 20 19 19 19 19 18 18 19 19 20 19 19 18 19 19 17
18 17 17 17 16 17 17 15 14 13 14 14 14 14 13 12 11 10 8 6 6 6 5 5 4 2 2 8 9 5 3 6 8 5 1 4 5 2 2 4 4 6 9 10 11 12 15 17 18 15 13 13 13 13 12 13 15 19 22 23 23 21 20 20 22 23 23 23 21 20 21 21 20 20 20 19 19 19 18 18 19 19 18 18 18 17 15
17 15 16 16 15 16 16 14 12 13 13 14 14 14 12 11 11 10 8 6 6 6 7 7 6 4 6 10 9 4 3 4 4 2 3 9 9 6 4 7 9 11 13 14 14 15 15 17 18 16 13 11 11 12 13 14 16 18 21 22 23 24 25 26 26 27 27 27 26 25 24 24 23 23 22 21 21 22 21 19 19 17 16 15 15 14 14
14 8 8 11 12 15 16 14 13 14 13 13 13 13 11 10 10 9 7 6 6 6 6 7 7 8 10 13 11 6 3 3 3 2 2 8 13 11 8 8 12 14 16 17 18 19 18 18 18 17 14 12 9 7 9 14 18 19 20 21 22 23 25 26 27 27 28 28 27 26 26 26 26 26 25 23 23 23 22 19 17 15 14 12 12 13 14
15 11 10 9 7 12 15 13 12 12 11 11 11 11 11 10 9 7 6 6 6 6 7 9 9 10 10 10 8 3 3 4 4 2 2 7 15 18 14 12 13 16 18 20 21 22 20 19 19 18 17 16 13 9 9 14 19 21 21 22 23 24 25 25 26 27 26 26 26 26 27 26 25 25 25 24 24 23 23 21 19 17 16 15 14 14 15
17 15 14 14 11 6 10 11 10 10 10 10 10 10 10 9 8 7 8 8 7 9 11 12 10 8 7 5 2 4 6 5 7 10 11 8 9 17 19 17 15 16 19 21 22 22 21 20 20 20 20 21 21 19 18 21 23 24 24 24 25 25 26 26 26 26 25 24 25 26 26 25 25 24 24 24 23 23 23 22 21 20 19 18 17 17 17
21 18 15 15 16 13 6 5 7 8 9 9 9 9 8 8 8 9 10 11 12 14 14 11 8 5 4 3 4 7 9 9 11 18 22 20 16 15 19 19 16 16 18 21 22 22 23 23 23 23 24 24 24 23 22 24 25 25 25 25 25 25 26 26 27 27 26 25 25 24 23 24 25 24 23 23 22 22 22 22 21 20 20 19 18 18 18
23 21 16 14 16 17 13 8 5 4 5 6 7 8 8 8 10 12 14 14 15 15 13 8 6 3 1 3 9 14 15 14 15 19 22 24 24 25 25 23 20 17 15 15 18 20 23 24 25 27 27 27 27 25 24 24 25 25 25 25 25 25 26 26 25 25 25 25 24 23 23 23 23 22 21 21 21 21 20 20 19 19 20 20 20 19 19
25 26 23 20 19 18 16 16 14 10 4 2 5 8 9 8 9 11 14 15 13 10 9 11 13 13 9 5 9 17 19 18 19 21 22 24 28 28 25 22 21 18 15 14 16 20 23 24 25 28 28 28 29 28 27 26 26 25 24 25 25 25 25 26 25 25 24 23 23 22 22 21 21 20 20 20 20 20 20 20 19 19 20 20 20 20 20
23 25 26 25 23 21 19 21 22 19 12 6 3 2 5 8 10 9 10 12 14 17 19 17 17 17 13 8 8 15 19 19 21 23 23 25 28 28 25 24 24 22 18 18 20 23 24 25 26 28 28 28 29 30 29 29 29 28 27 27 27 26 24 24 24 24 24 23 22 22 21 21 21 20 20 20 19 19 20 20 20 20 21 22 22 21 21
16 19 22 23 22 21 19 18 21 24 22 19 17 15 11 5 3 4 6 9 14 19 21 19 17 16 13 10 10 15 18 20 21 22 24 25 27 26 23 24 26 25 23 23 24 24 25 26 28 28 27 28 29 30 30 31 30 29 29 28 28 27 26 25 24 23 22 22 22 21 21 21 21 21 21 20 20 19 19 20 21 21 22 24 26 25 23
15 18 21 22 22 23 22 20 21 25 28 28 28 27 27 26 22 17 14 18 23 23 21 22 23 20 16 17 20 23 24 24 24 23 24 25 23 19 15 16 21 24 24 24 25 25 26 28 29 28 28 28 28 29 30 31 30 29 28 27 27 27 28 27 26 24 22 22 22 21 21 21 21 21 21 21 21 21 20 20 21 21 22 26 29 29 27
16 19 19 18 19 23 26 26 24 24 27 32 34 33 33 33 29 23 22 26 30 28 25 27 29 27 22 23 26 28 27 26 27 28 28 26 22 16 12 14 20 23 24 25 26 26 27 30 30 29 29 28 27 28 30 30 30 29 29 27 27 26 26 26 25 24 24 24 24 23 23 23 23 22 22 22 21 21 22 22 23 23 24 27 29 30 29
17 17 16 15 18 21 25 27 26 24 26 32 35 34 35 35 31 27 28 29 29 28 28 30 31 30 27 26 26 25 23 22 23 25 28 29 28 24 20 20 22 24 24 26 28 28 29 30 31 30 30 30 29 29 30 30 29 29 29 28 27 26 25 24 23 23 23 24 24 23 23 23 23 23 24 23 23 23 23 24 24 24 25 27 28 29 30
17 17 16 17 19 21 22 24 25 23 24 29 32 34 35 35 31 28 28 29 29 30 30 30 30 30 30 29 26 23 21 20 20 20 20 21 24 26 25 24 24 25 26 28 29 29 30 30 30 30 31 31 31 31 31 30 29 29 28 28 28 27 26 25 24 23 23 23 23 22 22 21 21 21 22 22 23 23 23 22 22 22 23 24 25 27 28
17 17 18 19 20 20 21 21 21 20 21 26 30 33 34 33 31 30 30 30 31 33 32 31 31 31 29 27 26 25 23 23 24 22 17 13 13 17 22 25 25 26 28 30 30 30 30 29 29 29 29 30 30 31 30 29 28 28 28 27 27 27 26 26 26 25 24 24 23 22 21 21 20 19 19 19 20 20 20 20 20 20 21 21 22 23 24
16 17 18 18 18 19 20 21 21 21 22 23 23 25 28 29 29 30 32 33 34 34 34 33 33 32 30 28 27 27 28 29 29 28 25 20 17 18 22 24 24 27 29 31 31 30 30 29 28 27 27 27 27 28 28 27 26 26 25 25 25 25 25 25 25 25 25 24 22 21 21 20 20 19 18 18 18 18 18 18 19 19 20 21 21 21 22
13 15 16 17 17 18 20 21 21 20 19 16 13 16 22 25 26 27 30 33 34 34 34 33 32 31 30 29 27 25 25 26 26 27 29 28 25 23 23 23 23 25 28 29 30 30 29 28 28 27 26 26 27 27 26 26 26 26 25 24 23 23 22 22 22 22 21 21 20 19 18 19 19 19 19 19 18 17 18 19 20 20 21 22 22 22 23
12 12 13 14 15 16 18 19 18 17 16 15 14 16 19 22 24 25 26 28 28 29 30 29 29 28 28 27 26 24 23 20 18 18 21 24 25 24 24 23 23 24 26 28 29 29 27 26 26 26 25 25 25 25 25 26 26 26 25 25 25 24 23 22 21 21 21 21 20 19 18 17 16 17 18 18 18 17 17 18 20 21 22 22 22 23 23
12 12 12 13 13 13 14 14 13 12 14 17 18 18 18 19 20 21 22 22 23 23 24 24 24 26 26 25 25 25 24 23 20 18 19 20 22 22 23 23 22 23 24 26 27 27 27 26 25 25 25 24 24 23 24 24 24 25 25 25 25 26 25 25 24 24 24 24 24 23 22 20 18 17 16 17 17 18 19 19 19 20 20 21 22 22 22
13 12 11 11 11 11 11 10 9 10 12 15 17 17 18 17 16 16 17 18 19 19 20 20 20 21 23 23 23 22 23 23 22 21 21 20 20 20 21 22 22 23 23 24 25 26 27 26 25 24 24 25 24 23 23 23 23 24 24 24 24 24 24 24 24 24 24 24 24 24 24 24 23 21 19 18 19 19 20 20 19 18 18 18 19 20 21
13 13 13 13 13 13 12 10 9 10 11 12 13 15 17 16 14 14 16 17 16 16 17 18 19 18 18 19 19 19 19 19 19 20 21 21 20 20 20 21 22 23 23 24 24 24 24 24 23 23 23 22 22 22 22 22 22 22 23 24 24 23 23 23 23 23 23 24 24 24 24 24 24 24 24 22 21 20 20 20 19 17 15 15 16 18 19
12 13 14 15 16 17 17 15 12 11 11 11 12 12 13 13 13 13 14 15 15 14 14 14 15 16 16 16 15 16 17 18 18 18 18 19 19 19 20 21 22 23 23 23 23 23 23 23 23 22 22 22 21 20 20 21 22 22 21 22 23 23 23 23 23 23 22 22 23 24 24 24 24 24 24 25 24 24 23 24 25 24 21 18 19 21 21
Wind_Direction
292 280 284 286 239 172 181 200 211 194 193 213 218 191 181 158 143 199 203 158 161 216 232 242 210 129 113 114 109 99 100 99 110 149 159 156 150 155 161 161 163 166 168 170 171 172 174 177 182 188 190 191 191 191 192 192 194 196 195 196 199 201 203 205 207 209 209 209 209 209 208 208 208 209 209 210 210 211 211 211 212 213 214 215 215 215 217
301 304 289 281 277 16 126 200 214 208 191 203 216 210 186 169 160 186 174 151 167 207 131 78 89 110 106 103 104 95 88 92 105 129 137 134 141 152 158 160 162 166 168 167 168 171 175 181 187 190 189 188 188 190 191 192 195 197 196 196 198 200 203 205 206 208 209 209 208 208 208 208 208 208 209 209 209 210 211 212 212 213 214 215 216 216 217
298 325 310 296 287 340 2 220 219 255 206 198 208 217 204 178 173 181 142 112 93 87 94 83 77 89 85 73 80 85 80 79 89 107 118 122 133 143 147 154 159 163 164 165 170 175 178 183 188 189 185 184 186 189 191 194 196 197 198 197 198 200 202 204 205 206 207 208 208 208 208 208 208 208 208 208 209 209 210 211 212 212 213 214 216 217 217
318 314 289 292 308 314 288 266 237 335 314 206 201 207 213 183 172 169 120 108 140 122 96 91 72 69 76 72 70 76 75 67 72 83 92 98 111 124 130 136 144 153 159 162 168 176 181 183 186 186 181 180 185 189 192 195 197 198 201 200 200 201 202 201 202 204 205 206 207 208 208 208 208 208 208 208 208 209 209 210 211 211 212 214 215 217 218
330 319 281 287 319 304 266 263 308 28 349 272 198 198 217 197 155 159 139 150 182 141 97 93 83 71 73 78 79 81 75 66 68 74 77 85 103 113 115 119 132 141 147 151 159 169 175 177 181 185 182 180 184 190 193 196 197 199 203 204 202 201 202 200 200 201 203 204 206 208 208 209 209 209 208 208 209 209 209 209 209 210 212 214 215 216 217
313 320 311 320 341 285 229 91 341 35 18 9 98 177 229 222 156 142 136 134 151 120 101 99 99 89 82 84 82 77 72 66 65 63 59 62 79 93 95 97 107 117 117 117 126 145 160 168 173 180 184 185 187 191 194 196 198 200 203 207 206 202 201 201 200 199 201 202 204 206 208 209 209 209 209 209 210 210 210 209 209 211 213 214 215 217 218
292 319 343 39 295 264 205 98 18 13 5 9 62 49 15 345 349 81 125 121 110 104 99 99 102 95 84 72 60 55 55 57 64 64 59 57 59 61 65 64 66 76 83 80 71 79 102 128 163 180 189 193 192 194 196 197 199 201 203 206 208 205 202 202 201 199 199 201 202 204 206 207 208 209 210 210 211 211 210 210 211 212 213 215 217 218 219
300 335 350 181 248 281 241 76 33 11 345 315 63 51 25 8 0 1 102 124 114 97 92 93 96 90 78 64 51 48 49 51 56 57 56 63 65 60 56 54 50 50 58 62 57 53 52 49 54 158 199 204 201 201 202 203 204 205 204 206 208 206 202 201 201 199 199 199 201 203 203 204 206 207 209 211 212 212 212 213 214 215 216 217 219 220 221
350 339 278 228 274 313 10 42 13 348 318 306 88 83 24 9 10 359 349 103 110 100 97 98 94 82 70 56 41 38 44 48 52 51 49 57 67 64 55 52 44 36 40 45 43 39 37 34 28 18 3 241 217 214 210 208 209 210 209 208 208 206 203 201 201 200 199 199 200 201 201 202 205 206 207 210 211 211 212 214 216 218 219 220 222 223 224
349 331 304 279 278 297 1 352 341 329 311 307 88 96 36 2 8 3 353 14 74 93 103 103 95 79 66 54 33 29 37 43 46 49 46 43 56 65 57 51 41 30 31 37 39 41 37 29 20 10 7 5 340 289 237 217 212 210 212 212 211 208 204 202 201 201 200 200 199 200 201 202 204 205 207 209 210 211 212 214 217 220 222 224 225 227 228
312 318 347 337 291 49 358 341 336 329 315 307 46 88 39 351 356 3 6 16 30 53 74 76 78 79 71 63 37 26 35 38 37 47 46 32 37 50 48 49 43 34 36 39 42 47 39 20 10 1 354 354 353 339 314 254 220 212 212 212 211 211 209 204 202 201 201 201 200 200 201 202 203 204 205 207 209 210 212 215 218 221 223 226 228 229 231
298 300 318 339 44 16 345 339 337 325 309 304 49 77 26 336 347 2 13 22 25 33 50 59 63 71 74 71 47 35 43 44 37 40 40 29 26 29 33 41 42 38 42 38 32 36 28 10 7 3 353 347 341 331 326 319 271 231 222 215 210 212 212 207 203 201 200 201 201 201 201 202 202 203 204 205 206 208 211 214 217 220 222 225 228 230 232
318 321 333 343 100 1 342 343 344 334 319 338 61 74 275 306 344 12 17 21 25 25 39 56 59 58 58 54 44 38 41 45 42 38 33 28 22 12 19 40 40 32 36 33 19 19 21 12 6 360 351 344 336 323 313 316 314 296 258 227 212 210 210 206 202 200 200 200 200 201 201 201 201 202 203 203 204 206 210 213 216 219 221 224 228 231 232
309 347 355 338 49 355 344 346 354 356 4 55 52 44 265 310 5 26 19 20 22 19 32 51 57 57 52 45 43 38 33 35 38 35 28 26 19 6 13 37 35 22 34 35 13 12 22 13 357 350 347 340 327 314 311 324 323 321 301 236 213 207 205 203 201 199 199 199 199 199 199 198 198 199 200 201 203 206 208 211 214 218 221 224 228 232 234
328 38 22 14 42 342 342 351 8 17 33 85 278 306 336 2 20 24 19 21 20 17 26 34 40 50 48 47 48 41 32 31 33 30 22 18 14 4 8 23 20 10 23 37 15 16 23 6 349 346 343 333 322 313 339 1 352 344 337 238 211 204 200 198 198 196 196 197 195 194 195 195 195 196 197 199 203 206 209 211 214 217 220 223 227 232 235
10 46 38 25 270 307 342 13 30 10 5 40 115 36 10 10 17 18 17 16 13 17 24 20 23 32 34 41 51 43 34 32 30 30 24 15 8 360 1 15 14 0 358 23 29 21 13 359 349 348 347 341 344 9 29 11 4 17 19 312 209 202 197 193 193 192 192 192 192 191 191 192 193 194 195 199 203 206 209 210 212 215 218 220 223 229 234
23 295 263 260 263 288 348 40 55 11 359 6 44 62 39 11 7 12 15 11 8 13 17 13 17 21 18 24 34 34 34 33 26 24 23 16 3 348 349 8 14 356 348 6 29 23 7 0 356 354 357 357 359 9 13 4 8 26 27 21 199 197 192 187 186 187 186 186 187 188 188 190 192 194 196 199 203 205 207 208 211 213 215 217 219 223 227
10 280 245 238 333 333 349 16 43 44 17 0 14 50 54 21 3 7 14 11 6 8 11 11 14 17 16 16 16 16 21 28 27 18 13 10 358 344 343 1 10 360 352 356 14 25 13 360 354 355 0 4 360 358 0 359 360 17 32 44 155 184 184 180 178 179 181 182 182 185 188 190 192 196 198 201 204 206 206 208 210 213 214 215 217 219 222
9 332 315 355 347 326 331 3 8 359 20 32 27 40 56 37 13 13 12 9 8 9 9 9 8 10 18 18 11 7 8 13 20 15 2 356 346 334 332 346 3 2 356 354 13 28 11 347 345 350 353 358 1 359 359 357 351 358 33 52 101 150 162 168 169 169 174 180 181 182 186 188 192 196 199 202 204 206 206 206 208 210 212 213 212 213 217
340 311 314 324 311 287 293 331 337 332 10 46 35 18 34 48 36 22 8 2 11 13 7 7 5 5 15 18 9 3 2 358 3 6 349 338 336 326 321 326 350 4 353 354 13 14 351 334 335 335 334 344 354 351 346 347 343 332 353 44 79 117 136 148 156 159 166 176 181 182 183 185 188 192 195 200 203 205 208 209 207 206 208 210 214 216 217
311 293 316 333 328 314 321 338 355 356 359 14 16 6 12 30 44 38 11 355 7 16 7 3 1 358 7 13 4 359 358 350 349 351 334 326 326 320 316 316 314 334 338 349 8 351 338 337 332 321 314 323 349 4 0 345 332 311 276 28 74 111 128 137 153 161 162 171 177 176 175 177 180 183 190 200 202 200 202 207 209 209 207 205 208 210 203
316 323 351 3 354 326 317 331 349 354 351 352 353 356 4 11 28 50 32 353 352 6 3 353 351 350 354 0 358 356 352 344 343 343 329 320 316 315 318 320 315 281 336 348 357 339 336 340 335 322 310 314 353 30 31 16 7 358 286 250 107 129 137 146 165 173 172 169 172 173 172 168 159 147 156 180 186 176 166 172 186 194 188 175 169 174 167
309 320 339 347 336 311 312 324 330 334 340 342 337 338 360 2 355 22 43 5 339 340 343 340 342 345 345 351 357 352 339 331 336 337 329 318 309 310 322 328 330 322 305 317 336 347 355 0 360 1 11 22 31 41 40 30 24 20 13 67 93 98 102 112 134 151 160 153 147 157 169 164 140 118 109 109 116 119 116 118 128 134 136 133 132 139 144
310 317 327 327 314 302 305 315 317 315 314 316 315 317 339 350 338 344 1 342 315 318 330 337 344 346 343 343 343 336 324 320 329 334 329 317 306 302 312 327 341 353 4 22 27 30 33 28 24 27 31 30 32 38 40 37 35 38 56 86 91 88 90 95 102 111 120 119 114 119 136 142 133 121 109 99 96 98 100 102 104 103 102 103 104 104 106
310 310 314 312 304 298 298 303 303 297 293 294 294 291 295 302 299 302 302 286 289 323 332 337 339 334 327 323 320 315 311 311 317 325 321 310 300 293 290 300 339 9 34 55 52 46 46 43 38 36 31 26 27 34 39 43 49 56 69 82 81 77 80 85 89 94 99 100 101 104 108 115 124 127 121 110 103 101 99 97 94 90 84 79 80 86 93
302 303 307 304 295 289 291 293 290 287 288 291 289 284 283 286 285 285 280 254 242 320 320 312 312 309 304 300 298 294 295 306 316 320 318 307 296 289 282 271 18 37 51 68 67 55 49 48 47 43 35 27 29 36 43 50 57 61 69 76 75 72 75 79 81 85 90 90 91 97 102 106 112 119 124 126 123 119 113 103 93 86 77 71 73 85 94
296 294 298 296 288 282 278 276 280 287 291 292 288 285 284 286 285 283 274 256 238 259 289 289 295 304 306 304 298 293 296 312 321 320 319 314 303 297 291 147 115 91 76 79 74 59 53 55 56 55 46 36 36 42 48 53 57 59 62 68 71 70 72 79 82 86 89 89 90 94 100 104 107 110 118 125 127 126 124 115 102 89 76 68 72 83 91
285 280 271 266 268 271 275 278 280 283 285 287 288 287 282 279 276 271 265 259 244 221 251 279 287 296 303 301 297 297 310 327 323 314 315 320 311 301 279 131 123 116 94 78 69 68 64 54 50 54 56 48 42 44 45 46 55 61 62 62 66 67 68 77 86 87 87 87 89 92 94 97 99 102 107 110 109 108 110 110 105 95 82 73 75 81 85
268 265 255 248 254 262 268 271 269 269 272 277 282 286 286 283 281 276 269 265 257 217 193 245 272 287 308 305 301 306 330 323 307 298 304 321 325 319 145 136 135 126 97 74 67 72 69 54 44 45 54 56 52 54 58 60 62 65 64 62 64 67 72 83 92 92 89 88 90 91 92 92 92 92 96 103 105 102 103 105 102 95 88 80 76 76 76
263 258 250 247 252 255 254 253 252 252 256 260 263 270 279 283 284 285 284 286 288 279 239 241 246 231 301 303 297 296 303 297 292 289 295 326 341 338 149 147 142 119 89 70 68 75 70 60 58 61 65 66 67 70 75 76 72 67 63 62 63 68 79 89 90 87 85 83 86 91 92 90 87 83 83 91 100 103 106 108 104 97 89 78 70 67 66
279 265 252 248 248 247 245 245 245 243 245 246 245 248 257 265 270 274 279 287 294 295 295 290 269 217 270 291 288 285 294 289 283 282 349 60 43 1 187 156 131 101 82 68 66 76 72 63 62 66 69 68 70 74 80 83 78 71 66 64 65 69 76 80 76 72 70 68 70 76 79 76 74 71 69 73 80 85 93 102 104 98 89 78 70 65 61
294 269 247 241 240 240 241 241 238 238 238 235 234 235 237 244 252 259 265 271 277 284 290 294 295 303 307 299 295 307 338 314 285 256 102 89 79 72 97 109 101 93 86 73 65 71 73 64 58 60 64 66 70 79 87 91 89 82 74 70 68 69 72 74 72 69 67 65 64 64 64 63 63 63 60 62 70 76 83 96 105 103 92 84 74 62 52
332 311 260 243 234 232 235 234 232 234 233 230 230 230 226 226 235 244 251 258 263 269 277 282 287 294 295 292 291 305 354 5 339 281 167 117 102 91 86 91 88 83 81 79 75 72 72 68 62 61 64 65 66 78 97 102 101 95 87 80 74 71 70 71 71 69 68 66 64 64 64 63 62 61 58 58 62 67 72 81 90 93 85 76 66 54 43
353 346 325 306 266 232 225 222 224 228 228 228 229 225 220 220 222 223 232 245 251 256 261 266 275 285 286 286 295 337 45 51 35 359 235 152 129 116 100 86 82 78 74 73 74 73 72 70 67 65 66 69 72 80 101 106 103 100 94 88 82 77 73 71 71 70 69 67 66 65 63 61 60 59 58 57 56 57 59 60 62 65 62 55 50 47 44
360 355 346 343 335 283 230 219 220 224 222 223 227 223 215 211 207 209 220 228 235 249 254 252 254 267 280 286 329 62 72 73 69 58 44 47 107 119 108 90 74 67 61 56 57 64 71 73 70 67 68 73 79 88 96 99 98 96 93 89 84 80 77 74 71 70 69 68 67 63 60 59 58 57 57 55 52 52 53 51 50 50 49 44 40 40 42
6 6 2 359 359 354 328 256 238 236 225 216 217 222 217 204 200 208 218 222 230 242 245 236 224 231 246 217 148 104 85 81 83 77 64 51 47 69 82 74 56 49 50 44 42 53 68 74 72 70 71 74 81 88 94 96 95 94 92 89 85 82 79 76 73 71 69 68 67 64 60 59 59 57 56 54 51 49 48 47 44 43 41 37 34 34 36
9 12 9 6 8 7 2 355 338 291 248 210 204 216 220 212 207 208 210 217 228 232 224 198 160 123 77 158 135 112 95 86 84 83 81 76 63 54 52 49 39 34 37 33 32 49 67 73 72 71 71 72 76 81 87 92 94 93 91 89 88 85 81 77 73 70 69 67 67 65 62 61 59 58 56 54 50 48 47 44 41 39 39 37 37 36 35
13 14 13 12 14 12 8 11 15 9 340 253 222 218 214 214 219 215 210 212 213 193 153 128 112 95 74 73 105 102 95 91 87 82 80 79 73 63 51 39 30 24 20 17 28 50 66 71 71 71 70 69 72 76 81 85 88 87 86 87 86 85 84 82 78 74 72 69 67 66 64 62 61 59 57 55 52 50 49 47 44 42 40 39 40 39 37
16 15 14 13 15 15 14 18 22 22 26 41 38 322 250 236 232 217 193 184 167 140 124 117 111 101 87 71 81 90 90 91 90 86 80 76 74 70 60 46 35 30 26 27 37 52 63 67 69 69 69 69 72 74 77 80 80 79 79 80 81 81 83 84 83 81 79 75 73 72 70 68 66 64 61 59 56 53 51 50 50 48 45 43 43 43 40
20 17 14 15 17 17 16 21 25 24 30 45 53 45 37 49 98 109 116 124 122 119 118 116 107 95 87 77 70 73 78 80 82 84 83 77 73 70 62 49 40 38 39 42 46 52 59 64 67 68 69 70 72 73 75 77 77 76 75 76 76 75 75 76 78 79 79 78 78 77 74 72 71 69 67 65 62 58 54 53 53 50 48 47 48 48 46
26 22 19 21 22 19 16 21 26 26 29 39 47 48 50 57 61 60 65 80 87 89 93 96 93 86 82 81 76 70 67 67 69 73 77 75 71 69 64 49 42 44 49 53 55 57 59 62 64 66 68 70 72 74 75 76 76 75 75 76 76 75 75 74 74 75 77 79 79 78 77 75 73 71 70 70 68 65 61 59 56 53 51 51 51 51 51
29 25 22 22 24 22 21 23 25 26 32 37 40 43 48 53 57 59 64 74 81 81 78 79 82 80 76 76 75 72 67 65 64 65 67 68 67 69 68 56 47 49 55 60 61 61 62 62 62 64 68 70 72 74 76 77 76 75 74 75 77 79 80 81 81 80 81 81 82 82 81 80 78 77 76 75 73 70 68 65 63 60 58 57 55 54 53
37 32 27 24 22 23 27 28 25 26 34 37 37 41 47 49 51 57 62 65 70 74 71 69 71 71 67 64 66 65 63 62 65 67 68 67 65 64 64 60 53 52 56 61 62 62 63 64 64 66 69 71 74 76 77 76 75 74 74 73 74 76 79 83 85 87 86 85 84 85 85 84 84 83 82 80 78 76 74 73 71 67 65 62 60 57 55
40 41 42 40 33 29 31 33 29 28 35 38 37 42 48 47 44 50 58 61 62 64 64 64 64 64 61 59 59 58 54 52 56 63 69 69 65 60 59 60 57 54 55 59 61 63 65 66 67 68 70 72 74 75 75 75 74 74 74 73 72 72 73 75 78 81 84 84 84 85 85 86 87 88 88 87 85 82 79 77 75 72 68 65 61 58 56
35 40 46 51 48 41 38 39 37 36 41 44 42 43 47 46 42 43 51 56 57 56 56 57 58 59 58 58 58 58 56 54 54 56 60 65 64 60 59 59 58 57 56 58 59 62 65 68 68 68 69 71 72 72 73 73 74 74 74 73 72 72 72 72 73 76 79 82 83 83 84 84 86 88 90 91 89 86 83 80 77 73 68 64 61 57 54
38 38 41 48 54 52 47 45 47 47 48 49 48 46 47 47 47 47 49 52 54 54 54 54 55 56 57 57 56 54 52 50 50 50 51 54 60 65 65 62 58 57 57 57 57 59 64 67 68 67 66 67 67 68 69 69 70 72 73 73 73 73 73 73 75 77 79 81 84 86 86 85 85 86 87 89 89 86 84 81 78 73 69 64 61 57 54
51 47 43 43 49 53 51 48 45 44 45 48 50 50 49 50 51 51 53 55 57 57 56 55 56 56 57 57 57 56 54 51 49 47 48 51 54 58 61 60 57 56 56 56 57 59 63 66 66 66 65 65 65 66 66 66 66 67 67 68 70 72 74 76 77 78 77 79 82 86 88 88 86 84 82 84 86 87 86 82 78 75 71 67 62 59 56
54 55 53 50 51 54 55 53 47 41 38 39 43 49 54 56 56 55 56 58 60 61 60 59 57 57 57 57 58 58 59 59 57 53 51 52 53 54 56 58 57 56 55 54 54 57 63 66 67 66 66 66 66 66 66 65 64 64 63 63 64 65 67 70 71 70 68 67 68 71 77 83 87 86 83 82 82 85 88 86 81 77 75 71 65 61 59
47 50 53 55 56 56 56 58 56 51 47 45 43 45 53 61 63 61 58 58 59 61 62 62 62 61 61 60 59 58 58 59 60 59 59 60 59 57 58 59 59 58 57 54 52 52 58 65 68 67 66 66 67 68 68 66 64 63 62 63 63 63 64 67 68 67 65 63 62 61 63 68 74 78 80 79 77 79 82 83 81 80 78 73 67 64 63
40 42 43 45 52 58 61 64 70 74 72 66 59 54 54 59 62 63 62 62 62 60 58 58 61 65 66 67 66 65 63 62 62 61 60 61 62 61 61 62 62 61 60 58 54 53 56 60 63 65 65 65 66 67 68 68 67 64 62 62 63 64 65 67 68 68 66 64 62 60 59 60 63 65 66 70 74 76 76 75 78 80 78 73 69 68 67
39 34 32 32 37 44 48 55 72 84 89 87 81 71 64 60 61 63 65 65 65 63 59 55 54 57 62 67 70 71 71 72 71 67 63 61 62 63 63 63 64 64 64 62 60 58 58 59 60 62 65 66 66 67 68 69 69 69 66 63 62 64 66 68 69 69 67 65 63 61 60 59 60 60 59 61 66 69 66 64 64 66 70 75 79 77 71
49 43 41 38 35 31 26 27 41 63 75 82 88 87 79 70 64 63 64 65 66 67 65 62 57 56 59 63 67 69 72 74 74 72 69 67 66 67 67 67 67 66 66 66 65 63 61 61 62 62 63 63 64 66 69 70 70 69 68 66 65 64 66 68 70 71 70 67 64 62 60 59 58 58 56 55 57 58 58 56 54 53 57 70 81 78 70
Height
655 645 640 633 629 631 633 636 638 638 639 643 649 655 651 651 668 676 662 655 661 654 642 639 634 632 636 635 631 630 629 628 630 633 638 643 647 649 651 653 656 660 663 666 669 671 673 676 680 683 686 690 693 696 699 702 707 710 714 718 721 725 728 730 733 735 738 741 743 746 749 751 754 756 758 761 763 765 767 769 771 774 775 778 779 780 782
655 648 643 636 633 635 635 635 634 634 636 638 643 647 643 644 653 655 654 658 658 648 642 639 634 630 631 630 628 629 631 632 634 636 640 644 648 650 653 654 656 658 661 663 667 670 672 675 678 681 684 686 689 693 696 699 703 706 709 713 716 719 722 724 728 731 734 737 739 742 744 746 748 751 753 756 758 761 763 765 767 769 772 774 775 776 778
662 655 651 643 636 638 641 640 636 636 637 636 639 643 641 643 648 646 651 663 664 650 638 635 634 630 630 635 636 636 638 637 637 640 644 646 649 651 653 655 657 658 660 663 666 669 671 673 675 678 681 683 686 689 692 695 698 701 705 707 710 713 716 719 724 727 730 733 735 737 739 741 744 746 749 751 753 756 758 760 763 765 767 769 770 772 773
675 661 658 651 639 640 646 646 641 641 643 641 637 637 638 641 646 648 655 668 668 651 636 635 639 636 637 643 644 643 643 640 640 644 648 649 651 653 655 656 658 659 661 663 665 667 668 670 673 676 678 680 683 686 689 692 694 698 701 702 705 708 711 715 719 722 725 728 731 733 735 737 739 741 744 747 750 752 754 756 758 760 762 764 765 767 768
684 664 659 653 650 661 663 649 639 639 641 639 633 632 632 632 637 648 658 661 656 644 638 642 645 644 645 647 646 646 646 643 643 646 649 651 652 653 655 656 658 659 660 661 662 663 665 668 670 673 675 677 680 682 685 688 691 694 696 698 701 703 706 710 712 716 720 723 726 728 730 733 735 738 741 743 745 748 749 752 754 755 757 758 760 761 762
696 675 662 660 674 685 666 636 627 631 635 639 641 641 635 628 628 635 644 649 645 639 640 647 649 648 647 646 644 644 644 645 649 651 651 652 652 653 655 656 657 659 659 660 661 662 664 667 669 671 674 676 678 680 683 685 688 690 693 695 697 699 702 705 707 711 715 717 720 724 726 729 732 734 737 739 741 743 745 748 750 751 752 753 754 756 757
698 682 676 687 697 680 645 624 622 625 629 633 642 651 650 644 641 636 636 643 644 640 641 645 647 646 644 643 645 645 645 646 651 655 656 656 656 658 659 659 660 661 661 662 663 664 666 667 668 671 673 674 677 679 681 683 685 687 689 691 693 695 698 701 703 706 709 712 715 718 722 726 728 731 733 735 737 740 742 744 745 745 747 748 749 750 752
697 692 693 698 685 652 628 628 633 636 638 635 642 662 670 665 661 654 645 642 641 640 641 643 644 644 643 646 650 650 650 650 652 657 660 659 661 663 663 663 663 662 662 662 664 665 667 668 669 671 672 674 675 677 678 681 682 684 686 687 689 691 694 696 700 702 705 708 711 714 718 721 723 726 729 731 734 736 739 740 741 742 744 744 745 746 748
704 707 699 680 664 652 648 655 660 662 660 646 645 669 682 672 666 665 657 647 642 641 642 642 643 643 648 660 664 659 656 656 656 658 660 660 662 663 663 664 664 664 664 664 665 666 667 668 670 671 672 674 674 676 677 678 679 681 683 684 685 688 690 692 696 698 701 704 707 710 714 716 718 721 724 727 730 733 735 737 738 739 740 741 743 744 744
707 712 705 685 678 681 681 681 672 662 657 643 635 661 687 681 671 670 665 655 647 643 643 644 644 649 665 682 682 669 663 662 661 661 661 661 662 664 664 665 666 666 667 666 667 668 668 669 670 671 673 674 674 675 676 676 677 678 679 681 683 684 686 689 692 695 698 700 703 706 709 711 714 717 720 723 726 729 731 733 735 736 738 739 740 741 741
708 712 714 703 696 695 693 688 671 657 655 640 630 664 701 695 679 677 672 665 658 652 651 651 652 664 686 697 689 675 669 667 665 666 667 664 664 665 666 668 669 670 670 669 670 671 671 672 672 671 672 673 674 675 675 675 676 675 675 677 679 681 684 686 688 691 694 696 699 702 704 707 710 713 716 719 722 725 727 729 731 734 736 737 737 738 738
710 710 711 705 702 702 695 686 674 661 649 634 644 692 719 701 685 684 679 674 671 664 661 662 666 679 693 695 687 677 672 671 670 669 670 670 668 668 668 669 670 671 672 672 673 674 674 675 674 673 673 673 673 674 674 674 674 674 674 674 676 678 681 683 685 688 690 693 696 698 701 704 707 710 713 716 719 721 724 726 728 730 732 733 733 734 735
711 713 712 706 705 704 694 687 677 658 645 653 686 720 720 698 690 689 682 680 679 674 671 672 678 685 687 684 681 676 673 675 675 673 674 674 672 672 672 672 673 673 674 675 675 676 677 676 676 675 675 674 673 673 673 673 673 673 672 672 673 676 677 679 682 684 686 689 692 695 699 702 705 708 710 713 716 718 720 723 725 726 728 729 730 731 732
713 713 715 713 711 702 691 688 679 663 670 700 719 717 706 697 693 689 685 685 683 680 679 680 682 685 682 680 680 679 678 679 679 678 678 678 677 676 676 676 677 676 677 678 678 678 678 678 678 677 676 676 674 672 673 673 672 671 670 670 671 672 674 676 678 681 684 686 689 693 696 699 702 705 707 710 713 715 717 720 721 723 724 726 727 728 728
713 714 720 727 726 711 695 693 692 689 702 721 718 706 702 699 692 690 690 688 686 686 687 686 686 686 684 683 683 683 682 682 682 682 682 682 682 682 680 681 681 680 680 680 680 680 680 680 680 679 678 677 674 673 672 672 671 670 669 668 668 669 671 673 675 678 681 684 687 690 693 696 699 702 705 708 710 712 714 716 718 720 721 723 724 724 725
725 730 732 732 728 716 704 705 712 712 712 712 708 707 707 701 695 695 695 692 690 690 690 691 690 689 688 687 686 686 687 686 686 687 686 686 687 686 686 686 685 683 684 683 682 682 682 681 681 680 679 678 675 673 673 672 671 669 668 667 667 668 670 672 673 676 679 682 685 688 691 694 697 700 703 705 707 709 711 713 715 716 718 720 721 722 723
728 731 728 721 718 714 708 709 713 713 710 707 706 707 708 705 702 700 698 697 696 693 693 694 692 690 690 689 687 688 688 688 688 689 689 690 691 690 690 689 688 687 686 685 684 684 683 683 682 681 680 679 677 675 674 673 671 670 668 667 667 668 670 671 673 675 678 680 683 686 689 692 695 698 701 703 705 707 709 710 712 714 715 717 718 719 721
722 720 716 713 715 713 709 709 710 709 709 709 707 706 708 709 705 702 701 701 699 697 698 697 695 694 693 691 690 689 689 689 690 690 691 692 693 693 692 691 690 689 688 686 686 685 684 684 684 682 681 680 678 676 675 673 672 671 669 668 668 669 670 671 673 675 677 680 682 685 688 690 693 696 699 701 703 705 706 708 710 711 713 714 716 717 718
727 725 717 713 715 713 709 709 711 709 707 707 707 708 709 708 706 704 704 703 702 701 701 701 700 698 695 695 696 694 693 694 693 692 693 694 695 695 694 693 692 690 689 688 687 686 686 685 684 683 682 680 678 677 676 674 673 672 671 670 670 670 671 672 674 675 677 679 682 684 687 689 692 694 697 699 701 703 704 706 707 708 710 712 713 715 716
729 729 721 715 713 710 707 709 712 710 709 708 707 707 707 707 707 707 705 704 705 705 704 704 704 702 700 701 701 700 699 699 697 696 696 696 696 696 695 693 692 691 690 689 688 687 687 686 684 683 682 680 679 678 676 675 675 673 672 672 671 671 672 673 674 676 678 680 682 684 686 688 691 693 696 697 699 701 702 703 704 706 708 710 711 713 714
727 725 721 718 716 713 710 712 713 712 711 710 708 708 708 708 709 710 709 708 707 707 708 708 707 706 705 704 703 703 702 701 700 699 698 697 697 697 695 693 692 691 690 690 689 688 687 686 685 683 682 680 680 678 677 676 675 674 674 673 672 673 673 674 675 677 678 680 681 683 686 688 691 693 695 696 698 699 700 702 703 704 706 708 709 710 712
736 730 727 729 732 729 721 717 715 714 712 712 711 710 709 709 710 711 712 711 710 710 710 710 709 709 707 705 704 704 703 702 702 701 700 699 698 697 695 693 692 691 690 690 688 688 687 686 685 683 682 681 680 679 678 677 675 675 674 674 673 673 674 674 675 677 678 680 681 683 685 688 690 692 694 695 697 698 700 701 702 703 705 706 708 709 710
745 737 733 734 736 734 727 721 718 715 713 713 713 712 710 709 709 709 711 712 712 711 711 710 709 708 707 705 704 704 704 704 702 702 701 701 699 697 696 694 692 690 690 689 688 688 687 687 685 684 683 682 681 680 679 677 677 676 675 674 674 674 674 675 676 677 678 680 681 682 685 687 689 691 693 696 698 699 701 702 702 703 705 706 708 709 709
743 737 736 735 733 730 727 726 724 718 713 713 714 713 711 710 709 709 710 711 711 711 710 708 707 707 706 706 705 706 706 705 703 703 703 701 699 698 697 695 693 691 690 689 689 688 688 688 686 685 684 683 682 681 680 679 678 677 676 676 676 676 677 677 677 677 679 680 681 683 684 686 689 691 693 696 699 701 703 704 704 705 706 707 708 709 710
744 740 737 735 732 727 722 723 723 719 713 712 711 711 711 711 711 711 711 710 710 710 709 709 708 707 708 707 706 707 706 704 704 704 703 701 699 698 696 695 694 692 691 690 690 689 688 688 687 686 685 684 684 683 682 681 680 679 679 678 678 678 679 679 679 679 680 681 683 684 685 687 689 691 693 695 699 702 704 706 706 707 707 709 710 710 711
745 742 738 735 730 723 720 720 719 716 712 710 709 708 709 709 710 710 711 711 710 710 709 709 708 708 708 708 707 706 705 704 704 703 702 701 699 696 695 695 694 693 692 691 690 690 689 688 687 687 687 687 686 685 684 683 683 682 681 681 681 681 681 681 682 682 683 684 685 686 687 689 690 692 694 695 697 700 704 705 707 708 709 710 711 711 712
742 741 741 738 728 719 718 719 716 713 711 709 707 706 706 707 708 709 709 710 710 709 710 709 709 708 708 707 706 705 704 703 703 702 701 699 697 695 694 694 693 694 693 692 691 691 690 688 688 688 689 689 689 687 686 686 685 684 684 683 683 683 684 684 684 685 685 686 687 688 689 691 692 694 696 697 698 700 702 704 706 708 710 711 712 712 712
739 737 739 737 726 717 715 716 715 712 710 708 706 704 703 703 704 705 707 708 708 709 709 709 709 709 708 707 705 703 702 701 701 701 699 698 696 695 693 693 693 694 694 692 692 691 690 690 689 689 690 691 690 689 689 688 687 687 686 685 685 685 686 687 688 688 688 688 689 690 691 692 693 695 696 698 699 701 702 704 706 708 711 712 713 713 713
732 730 730 726 719 715 715 715 713 711 708 707 707 704 701 701 701 701 702 704 705 707 709 710 710 710 709 707 705 702 701 701 700 699 698 697 696 695 693 693 694 694 694 693 692 692 691 691 690 690 691 692 691 690 690 690 689 689 688 687 687 688 689 690 690 690 690 690 691 692 693 693 695 697 698 699 700 701 702 704 706 708 711 713 713 713 713
721 720 718 715 712 712 713 711 709 708 707 706 706 704 701 700 699 699 699 699 701 703 706 708 709 710 709 709 706 704 703 702 700 698 697 696 696 695 694 694 695 695 694 694 694 693 693 692 691 692 693 692 692 692 692 691 692 691 690 690 690 691 692 693 693 692 692 693 693 694 695 696 697 698 699 700 701 702 703 705 707 710 712 713 713 713 714
710 708 708 707 706 707 706 704 703 704 703 702 703 702 701 700 699 699 698 697 697 698 700 702 705 706 707 707 706 704 703 701 700 698 697 696 696 696 696 695 695 695 695 695 695 694 693 692 692 693 693 693 693 693 693 693 694 693 693 693 693 694 694 694 694 694 694 695 695 696 697 698 699 700 701 702 703 704 705 707 710 712 713 714 714 715 715
701 697 698 699 700 700 699 698 699 699 698 698 699 698 698 698 699 698 697 697 697 697 697 698 700 701 702 703 703 702 701 700 699 698 697 696 696 697 698 697 697 695 695 695 695 694 693 693 693 694 694 695 695 695 695 695 695 695 696 696 697 697 697 696 696 697 697 697 698 699 700 701 702 702 703 705 706 707 708 710 712 714 714 715 716 716 717
700 695 693 693 692 692 693 693 693 693 693 693 694 693 693 695 696 696 696 697 697 697 698 698 698 699 700 700 700 699 699 699 699 698 698 697 697 698 700 700 698 697 696 695 694 694 694 694 695 695 695 695 696 696 696 696 697 697 699 700 700 700 700 699 699 700 700 701 702 703 704 705 705 706 707 708 709 710 711 713 714 715 716 716 717 718 718
704 698 693 688 685 684 684 685 687 688 688 689 689 689 689 691 692 693 695 696 697 697 698 698 698 699 699 699 699 698 698 699 699 699 698 698 697 698 700 701 700 698 697 696 694 694 695 695 696 696 696 696 696 697 697 698 699 700 701 702 702 703 703 703 703 703 704 705 706 707 707 708 709 710 711 712 712 713 714 715 716 717 718 718 719 719 719
705 699 693 688 683 679 677 679 681 682 683 684 685 685 686 687 689 691 693 694 695 697 697 698 698 699 699 699 699 698 698 699 699 698 699 700 699 698 699 701 701 700 699 698 696 695 696 696 697 697 697 697 697 698 699 700 701 702 703 704 704 705 705 706 706 706 708 709 709 710 711 712 712 713 714 714 715 716 717 718 719 719 720 720 721 721 721
708 702 697 692 686 681 678 677 677 677 678 679 681 682 683 684 686 688 690 692 694 696 697 697 698 698 699 699 700 699 698 699 699 698 699 702 703 701 699 701 703 703 700 699 699 699 699 698 698 698 699 699 699 700 702 702 703 704 705 705 706 706 707 708 708 709 710 711 711 713 714 715 715 716 717 718 719 719 719 720 721 722 722 722 722 722 722
713 707 703 697 691 686 682 679 677 676 675 676 677 679 681 682 684 686 688 690 692 694 695 695 697 698 699 699 699 698 698 700 701 701 700 702 704 703 700 701 705 705 703 703 704 704 702 701 701 700 700 700 701 702 704 704 705 706 707 707 708 709 709 710 711 712 713 714 715 716 717 718 719 720 721 722 722 723 723 724 724 724 724 724 724 724 723
718 712 708 703 697 693 688 683 679 677 675 675 676 678 679 680 682 684 686 688 691 692 693 695 697 699 700 700 699 698 699 702 703 703 702 702 702 703 704 706 709 709 709 710 710 708 705 704 703 702 702 703 704 704 705 706 706 707 708 709 710 711 712 713 715 716 717 718 719 719 720 721 722 723 724 725 725 726 727 727 727 727 727 727 727 726 725
724 719 715 710 704 699 695 689 685 682 680 678 679 679 680 681 683 683 684 686 688 690 692 696 698 699 702 703 702 700 701 703 703 703 704 704 704 705 708 712 713 714 714 715 713 710 707 706 705 704 705 706 706 707 707 708 708 709 710 711 712 713 715 716 717 719 720 721 722 723 724 725 725 726 727 728 728 729 730 730 730 731 730 730 729 728 728
733 728 724 719 713 708 704 698 694 691 688 684 682 683 683 684 684 684 686 687 689 690 694 697 698 701 705 706 704 703 704 705 705 705 706 707 707 708 711 715 717 718 718 717 716 713 711 709 707 707 708 709 709 709 710 711 711 712 713 714 715 716 717 719 720 722 723 724 725 726 727 728 728 729 730 731 732 733 733 734 734 734 733 732 732 731 731
740 736 732 727 722 718 714 708 704 700 696 691 689 690 689 688 689 690 692 692 693 696 699 699 700 703 708 708 706 706 707 708 708 708 707 708 710 713 716 720 723 723 723 722 721 719 715 712 711 711 712 713 713 713 713 714 714 716 717 718 719 720 721 722 724 725 726 727 728 729 730 731 732 733 734 735 736 736 737 737 737 737 736 736 735 735 734
745 742 739 735 731 728 724 718 714 711 707 702 700 699 698 696 698 701 701 700 700 702 705 703 703 707 711 711 708 708 711 713 713 712 711 712 716 719 722 725 728 728 727 727 725 722 718 716 715 715 716 717 717 718 717 718 719 720 720 722 723 724 726 727 729 730 730 731 732 733 734 734 735 736 737 738 739 739 740 740 739 739 739 739 739 738 737
750 747 744 742 739 736 732 728 725 721 716 713 712 711 709 708 710 711 710 709 708 708 708 708 707 710 714 714 712 714 718 720 720 719 718 720 723 724 726 728 730 730 730 729 727 724 722 721 721 721 721 721 721 721 721 722 723 724 725 726 727 728 730 731 732 733 734 734 735 736 737 737 738 739 740 740 741 741 742 742 742 742 743 742 742 741 740
753 752 749 748 746 743 740 737 735 731 727 725 726 723 719 719 720 720 719 717 715 713 713 713 713 714 717 719 720 722 725 726 726 725 725 725 727 729 731 732 733 733 732 731 729 727 726 726 726 726 726 726 726 726 726 727 728 729 730 731 732 732 733 734 735 736 737 737 738 739 739 740 740 741 741 742 742 743 744 744 744 745 745 744 744 743 742
756 754 753 752 751 749 746 745 743 741 738 737 735 732 729 728 730 729 726 722 719 718 719 719 719 721 725 728 730 732 733 733 732 731 730 730 732 735 736 737 736 735 734 733 731 730 731 731 731 731 731 731 731 730 730 731 733 734 734 735 736 736 737 738 738 739 739 740 741 741 742 742 742 743 743 744 745 745 745 746 746 746 745 745 745 744 744
758 757 756 755 754 753 752 750 749 748 746 743 741 740 739 738 737 736 732 727 724 724 726 727 728 730 733 735 736 737 736 735 735 735 735 735 737 739 740 740 739 738 736 735 735 735 735 735 735 735 735 735 735 735 735 736 737 738 738 739 740 740 741 741 742 742 743 743 744 744 745 745 745 745 746 746 747 747 747 747 747 747 747 747 746 746 746
761 760 758 758 757 756 756 754 753 751 749 747 746 746 746 745 743 741 738 735 734 734 736 737 738 740 741 741 741 741 740 739 739 739 739 739 740 742 742 742 741 740 739 739 739 739 739 738 738 739 739 739 740 740 740 740 741 741 741 742 743 743 744 744 745 745 746 746 746 747 747 748 748 748 748 748 749 749 749 749 749 749 749 748 748 748 747
762 761 760 760 759 759 758 757 756 754 753 752 752 752 751 750 748 746 745 744 743 743 744 745 746 747 747 747 747 746 746 744 744 745 745 745 745 745 745 744 744 743 742 741 741 741 742 742 742 742 743 744 744 745 745 745 744 744 745 745 745 746 746 747 747 748 748 748 749 749 750 750 750 751 750 750 751 751 751 751 751 751 751 750 750 749 749
763 763 762 762 761 760 759 759 758 758 758 757 756 756 755 754 753 752 752 751 750 750 751 752 752 752 752 751 750 750 749 748 748 749 750 750 749 749 748 747 746 746 745 744 744 745 745 745 745 746 747 748 748 749 749 749 748 748 748 748 748 749 749 749 750 750 750 751 751 751 752 752 752 753 753 753 753 753 753 753 753 753 752 752 752 751 750
765 764 763 763 762 761 761 760 760 760 760 760 759 758 758 757 756 756 756 756 755 755 755 755 755 754 754 754 753 753 752 752 752 752 752 752 752 752 751 750 749 749 748 748 748 748 748 749 749 750 751 751 752 752 752 752 752 752 751 751 751 752 752 753 753 753 753 754 754 754 754 754 754 754 755 755 755 755 755 755 755 754 754 753 752 752 752
766 766 765 764 764 763 762 762 761 761 761 761 761 760 760 759 758 758 758 758 758 757 757 756 756 756 756 756 756 756 756 755 755 755 754 754 754 754 754 753 752 752 752 752 752 752 752 752 753 754 755 755 756 756 755 755 755 755 755 755 754 755 755 755 756 756 756 757 757 757 757 757 757 757 757 757 757 757 757 756 756 756 755 754 753 753 753
768 767 767 766 766 765 764 763 763 762 762 762 762 762 762 761 761 761 760 760 760 759 759 759 759 759 759 759 759 758 758 757 757 757 756 756 756 757 757 756 756 756 756 756 756 755 755 756 756 757 757 758 759 759 759 758 758 757 757 758 758 758 758 758 759 759 759 759 759 759 759 759 759 759 759 758 758 758 758 758 758 757 757 756 756 756 755